ACA868 CYHZ-EGLL

Flight info

Callsign ACA868
Flight time N/A
Altitude 35000
Route NOTOP Q846 SILRO DCT ALLRY/M079F350 NATY GISTI/N0456F350 DCT ENJEX DCT AVZAC DCT INFEC DCT JETZI DCT AMFUL DCT ORZEB P2 SIRIC
Aircraft B38M/M-SDE1FGHILORVWXY/HB1

Departure

Time 2026-04-27 23:58
Airport Halifax / Stanfield International Airport (CYHZ)

Arrival

Time N/A
Airport London Heathrow Airport (EGLL)
Time Latitude Longitude Altitude Speed Heading
2026-04-27 23:30 44.88767 -63.51397 454 ft 0 kts 296°
2026-04-27 23:47 44.88765 -63.51391 454 ft 2 kts 294°
2026-04-27 23:47 44.88759 -63.51366 454 ft 3 kts 274°
2026-04-27 23:48 44.88762 -63.51341 454 ft 3 kts 241°
2026-04-27 23:48 44.88774 -63.51321 454 ft 3 kts 212°
2026-04-27 23:48 44.88792 -63.51309 454 ft 3 kts 197°
2026-04-27 23:48 44.88812 -63.51303 454 ft 3 kts 188°
2026-04-27 23:49 44.88832 -63.51300 454 ft 3 kts 181°
2026-04-27 23:49 44.88852 -63.51301 454 ft 2 kts 173°
2026-04-27 23:49 44.88859 -63.51302 454 ft 1 kts 170°
2026-04-27 23:53 44.88853 -63.51301 454 ft 3 kts 168°
2026-04-27 23:53 44.88814 -63.51289 454 ft 7 kts 168°
2026-04-27 23:53 44.88755 -63.51272 454 ft 11 kts 169°
2026-04-27 23:54 44.88698 -63.51200 454 ft 15 kts 92°
2026-04-27 23:54 44.88713 -63.51036 454 ft 19 kts 79°
2026-04-27 23:54 44.88772 -63.50881 454 ft 20 kts 38°
2026-04-27 23:54 44.88893 -63.50769 452 ft 21 kts 36°
2026-04-27 23:55 44.88994 -63.50650 453 ft 17 kts 52°
2026-04-27 23:55 44.89002 -63.50596 453 ft 0 kts 112°
2026-04-27 23:56 44.88997 -63.50580 453 ft 4 kts 116°
2026-04-27 23:56 44.88975 -63.50529 453 ft 9 kts 122°
2026-04-27 23:56 44.88942 -63.50460 453 ft 8 kts 128°
2026-04-27 23:57 44.88878 -63.50444 453 ft 13 kts 210°
2026-04-27 23:57 44.88855 -63.50465 453 ft 5 kts 214°
2026-04-27 23:57 44.88602 -63.50712 455 ft 83 kts 215°
2026-04-27 23:57 44.87924 -63.51380 453 ft 151 kts 214°
2026-04-27 23:58 44.86933 -63.52349 725 ft 190 kts 214°
2026-04-27 23:58 44.85827 -63.53518 1373 ft 205 kts 216°
2026-04-27 23:58 44.84662 -63.54820 1954 ft 218 kts 214°
2026-04-27 23:58 44.83454 -63.55971 2704 ft 210 kts 211°
2026-04-27 23:59 44.82236 -63.57142 3523 ft 212 kts 213°
2026-04-27 23:59 44.80981 -63.58425 4049 ft 236 kts 215°
2026-04-27 23:59 44.79612 -63.59856 4757 ft 247 kts 216°
2026-04-27 23:59 44.78229 -63.61309 5771 ft 251 kts 216°
2026-04-28 00:00 44.76811 -63.62799 6615 ft 256 kts 217°
2026-04-28 00:00 44.75274 -63.64064 7470 ft 259 kts 199°
2026-04-28 00:00 44.73494 -63.64460 8333 ft 262 kts 176°
2026-04-28 00:00 44.71713 -63.63896 9165 ft 265 kts 155°
2026-04-28 00:01 44.70192 -63.62441 10028 ft 267 kts 133°
2026-04-28 00:01 44.69137 -63.60296 10754 ft 268 kts 111°
2026-04-28 00:01 44.68717 -63.57790 11471 ft 269 kts 90°
2026-04-28 00:01 44.68969 -63.55188 12166 ft 271 kts 69°
2026-04-28 00:02 44.69834 -63.52820 12850 ft 274 kts 56°
2026-04-28 00:02 44.70906 -63.50560 13497 ft 280 kts 54°
2026-04-28 00:02 44.72012 -63.48283 14182 ft 284 kts 54°
2026-04-28 00:02 44.73176 -63.46007 14756 ft 289 kts 53°
2026-04-28 00:03 44.74359 -63.43702 15360 ft 292 kts 53°
2026-04-28 00:03 44.75551 -63.41371 15948 ft 295 kts 53°
2026-04-28 00:03 44.76755 -63.39010 16522 ft 299 kts 54°
2026-04-28 00:03 44.77972 -63.36620 17094 ft 302 kts 54°
2026-04-28 00:04 44.79201 -63.34204 17667 ft 305 kts 54°
2026-04-28 00:04 44.81697 -63.29289 18781 ft 311 kts 54°
2026-04-28 00:04 44.82963 -63.26791 19269 ft 314 kts 54°
2026-04-28 00:05 44.84239 -63.24276 19735 ft 318 kts 54°
2026-04-28 00:05 44.85530 -63.21723 20217 ft 320 kts 54°
2026-04-28 00:05 44.86830 -63.19155 20685 ft 324 kts 54°
2026-04-28 00:05 44.87698 -63.17439 20979 ft 326 kts 54°
2026-04-28 00:06 44.89467 -63.13935 21587 ft 330 kts 54°
2026-04-28 00:06 44.90803 -63.11288 22025 ft 333 kts 54°
2026-04-28 00:06 44.92150 -63.08614 22463 ft 336 kts 54°
2026-04-28 00:06 44.93508 -63.05917 22894 ft 338 kts 55°
2026-04-28 00:07 44.94876 -63.03197 23317 ft 341 kts 55°
2026-04-28 00:07 44.96256 -63.00457 23714 ft 344 kts 55°
2026-04-28 00:07 44.97646 -62.97686 24094 ft 347 kts 55°
2026-04-28 00:07 44.99046 -62.94895 24421 ft 350 kts 55°
2026-04-28 00:08 45.00456 -62.92080 24737 ft 352 kts 55°
2026-04-28 00:08 45.01876 -62.89243 25053 ft 355 kts 55°
2026-04-28 00:08 45.03307 -62.86381 25358 ft 358 kts 55°
2026-04-28 00:08 45.04748 -62.83498 25657 ft 360 kts 55°
2026-04-28 00:09 45.06197 -62.80594 25961 ft 363 kts 55°
2026-04-28 00:09 45.07639 -62.77703 26246 ft 365 kts 55°
2026-04-28 00:09 45.09107 -62.74754 26527 ft 368 kts 56°
2026-04-28 00:09 45.10586 -62.71783 26808 ft 370 kts 56°
2026-04-28 00:10 45.12071 -62.68796 27066 ft 373 kts 56°
2026-04-28 00:10 45.13571 -62.65776 27287 ft 377 kts 56°
2026-04-28 00:10 45.15187 -62.62782 27271 ft 389 kts 47°
2026-04-28 00:10 45.17026 -62.59897 27293 ft 399 kts 49°
2026-04-28 00:11 45.18880 -62.56895 27325 ft 409 kts 49°
2026-04-28 00:11 45.20151 -62.54816 27354 ft 416 kts 49°
2026-04-28 00:11 45.22692 -62.50628 27397 ft 430 kts 50°
2026-04-28 00:11 45.24655 -62.47378 27448 ft 440 kts 50°
2026-04-28 00:12 45.26672 -62.44034 27460 ft 450 kts 50°
2026-04-28 00:12 45.28729 -62.40620 27492 ft 460 kts 50°
2026-04-28 00:12 45.30810 -62.37158 27904 ft 459 kts 50°
2026-04-28 00:12 45.32893 -62.33692 28126 ft 465 kts 50°
2026-04-28 00:13 45.35015 -62.30155 28093 ft 476 kts 50°
2026-04-28 00:13 45.39367 -62.22888 28126 ft 494 kts 50°
2026-04-28 00:13 45.41608 -62.19139 28283 ft 499 kts 50°
2026-04-28 00:14 45.43858 -62.15369 28638 ft 500 kts 50°
2026-04-28 00:14 45.46121 -62.11573 28859 ft 504 kts 50°
2026-04-28 00:14 45.48395 -62.07752 29165 ft 506 kts 50°
2026-04-28 00:14 45.50671 -62.03924 29476 ft 507 kts 50°
2026-04-28 00:15 45.52950 -62.00084 29866 ft 507 kts 50°
2026-04-28 00:15 45.55231 -61.96236 30224 ft 507 kts 50°
2026-04-28 00:15 45.57512 -61.92384 30563 ft 508 kts 50°
2026-04-28 00:15 45.59791 -61.88529 30872 ft 508 kts 50°
2026-04-28 00:16 45.62038 -61.84723 31171 ft 508 kts 50°
2026-04-28 00:16 45.64314 -61.80862 31486 ft 508 kts 50°
2026-04-28 00:16 45.66587 -61.77001 31792 ft 507 kts 50°
2026-04-28 00:16 45.68856 -61.73143 32097 ft 507 kts 50°
2026-04-28 00:17 45.71126 -61.69275 32395 ft 507 kts 51°
2026-04-28 00:17 45.73387 -61.65418 32709 ft 507 kts 51°
2026-04-28 00:17 45.75652 -61.61551 32998 ft 506 kts 51°
2026-04-28 00:17 45.77911 -61.57688 33282 ft 506 kts 51°
2026-04-28 00:18 45.80168 -61.53821 33568 ft 506 kts 51°
2026-04-28 00:18 45.82423 -61.49954 33854 ft 505 kts 51°
2026-04-28 00:18 45.84678 -61.46081 34147 ft 505 kts 51°
2026-04-28 00:18 45.86930 -61.42207 34412 ft 505 kts 51°
2026-04-28 00:19 45.88420 -61.39642 34569 ft 505 kts 51°
2026-04-28 00:19 45.90669 -61.35765 34813 ft 504 kts 51°
2026-04-28 00:19 45.92908 -61.31901 35077 ft 503 kts 51°
2026-04-28 00:19 45.95148 -61.28028 35339 ft 502 kts 50°
2026-04-28 00:20 45.98103 -61.22912 35429 ft 502 kts 51°